Погода в Верхней Старице

Россия / Пермский край     60°13′58″N   54°39′55″E
темп.,
°C
ветер,
м/с
пор.,
м/с
влажн.,
%
обл.,
%
осадки,
мм/ч
давл.,
гПа
погр.,
м
16 апреля, пт
пт1623:00+1ссз29795 0.1 1026216
02:00−1с210825 0.0 1027229
05:00−2с27865 0.0 1029197
08:00−1ссв24795 0.0 1031202
11:00+4с23565 0.0 1031858
14:00+6с23445 0.0 10311324
17:00+6ссз344616 0.0 10301453
20:00+3зсз11725 0.0 103010
17 апреля, сб
сб1723:000з22835 0.0 103022
02:00−1з25875 0.0 102987
05:00−1з310875 0.0 1029216
08:00+2зсз310835 0.0 1028375
11:00+6сз596482 0.0 10271226
14:00+7зсз5857100 0.0 10261299
17:00+8зсз5105760 0.0 10241684
20:00+7зсз51165100 0.1 10231015
18 апреля, вс
вс1823:00+5зсз5137614 0.1 1023812
02:00+3с5108797 0.1 1023765
05:00−1с49725 0.2 1027904
08:00−2с476866 0.0 10301005
11:000ссв5752100 0.0 10321392
14:00+3св464099 0.0 10332014
17:00+3св453517 0.0 10342059
20:00+1всв24504 0.0 1036126
19 апреля, пн
пн1923:00−2ссв25655 0.0 1037124
02:00−3св26656 0.0 1039197
05:00−4всв13630 0.0 104098
08:00−2св12480 0.0 1041310
11:00+2ссв22335 0.0 10411157
14:00+4ссв12290 0.0 10391417
17:00+5ссз12291 0.0 10381432
20:00+2зюз11430 0.0 103810
20 апреля, вт
вт2023:00−1з22533 0.0 103817
02:00−1з22575 0.0 103830
05:00−2з24606 0.0 103882
08:00+1з255052 0.0 1038227
11:00+6зсз34336 0.0 1036913
14:00+9зсз33305 0.0 10351243
17:00+10зсз34321 0.0 10331260
20:00+6з22500 0.0 103315